TimePDT,TemperatureF,Dew PointF,Humidity,Sea Level PressureIn,VisibilityMPH,Wind Direction,Wind SpeedMPH,Gust SpeedMPH,PrecipitationIn,Events,Conditions,WindDirDegrees,DateUTC
12:56 AM,34.0,28.9,82,30.27,10.0,SSE,3.5,-,N/A,,Clear,160,2012-10-18 07:56:00
1:56 AM,33.1,28.0,82,30.28,10.0,Calm,Calm,-,N/A,,Clear,0,2012-10-18 08:56:00
3:56 AM,32.0,28.0,85,30.25,10.0,Calm,Calm,-,N/A,,Clear,0,2012-10-18 10:56:00
4:56 AM,28.0,26.1,92,30.23,10.0,Calm,Calm,-,N/A,,Clear,0,2012-10-18 11:56:00
5:56 AM,28.9,27.0,92,30.24,10.0,Calm,Calm,-,N/A,,Clear,0,2012-10-18 12:56:00
7:56 AM,30.9,28.0,89,30.25,10.0,Calm,Calm,-,N/A,,Clear,0,2012-10-18 14:56:00
9:56 AM,51.1,32.0,48,30.18,10.0,Calm,Calm,-,N/A,,Clear,0,2012-10-18 16:56:00
10:56 AM,57.9,30.9,36,30.17,10.0,Calm,Calm,-,N/A,,Clear,0,2012-10-18 17:56:00
11:56 AM,63.0,28.9,28,30.14,10.0,Calm,Calm,-,N/A,,Clear,0,2012-10-18 18:56:00
12:56 PM,68.0,25.0,20,30.09,10.0,SSE,10.4,-,N/A,,Clear,150,2012-10-18 19:56:00
1:56 PM,73.0,24.1,16,30.04,10.0,South,6.9,-,N/A,,Clear,170,2012-10-18 20:56:00
2:56 PM,75.0,26.1,16,30.00,10.0,WNW,5.8,-,N/A,,Clear,290,2012-10-18 21:56:00
3:56 PM,75.0,27.0,17,29.98,10.0,SW,3.5,-,N/A,,Clear,220,2012-10-18 22:56:00
4:56 PM,73.9,28.9,19,29.97,10.0,SSW,9.2,-,N/A,,Clear,210,2012-10-18 23:56:00
5:56 PM,69.1,32.0,25,29.96,10.0,WSW,4.6,-,N/A,,Clear,250,2012-10-19 00:56:00
6:56 PM,59.0,39.9,49,29.98,10.0,Calm,Calm,-,N/A,,Clear,0,2012-10-19 01:56:00
7:56 PM,53.1,39.9,61,29.99,10.0,Calm,Calm,-,N/A,,Clear,0,2012-10-19 02:56:00
9:56 PM,55.9,37.9,51,29.96,10.0,SW,3.5,-,N/A,,Clear,220,2012-10-19 04:56:00
10:56 PM,53.1,37.9,57,29.96,10.0,Calm,Calm,-,N/A,,Clear,0,2012-10-19 05:56:00
11:56 PM,51.1,37.9,61,29.99,10.0,Calm,Calm,-,N/A,,Clear,0,2012-10-19 06:56:00